Terminal Aerodrome Forecast
Issued by NWS Dodge City, KS

Home | Current Version | Previous Version | Graphics & Text | Print | Product List | Glossary Off
Versions: 1 2 3 4 5 6 7 8 9 10 11 12 13 14 15 16 17 18 19 20 21 22 23 24 25 26

000
FTUS43 KDDC 160832 AAB
TAFDDC
TAF AMD
KDDC 160832Z 1609/1706 18008KT P6SM BKN090
     FM161000 19010KT P6SM VCTS BKN050CB
     FM161200 33013KT P6SM BKN045=

USA.gov is the U.S. government's official web portal to all federal, state and local government web resources and services.